Time,TemperatureF,DewpointF,PressureIn,WindDirection,WindDirectionDegrees,WindSpeedMPH,WindSpeedGustMPH,Humidity,HourlyPrecipIn,Conditions,Clouds,dailyrainin,SolarRadiationWatts/m^2,SoftwareType,DateUTC
2013-08-28 00:00:00,60.1,55.9,29.88,SSW,207,0.0,2.0,86,0.00,,,0.00,0001,Weather View 32 v70,2013-08-28 07:00:00,
2013-08-28 00:05:00,60.2,56.6,29.88,WSW,252,2.0,4.0,88,0.00,,,0.00,0002,Weather View 32 v70,2013-08-28 07:05:00,
2013-08-28 00:15:00,60.1,56.2,29.88,South,184,0.0,4.0,87,0.00,,,0.00,0001,Weather View 32 v70,2013-08-28 07:15:00,
2013-08-28 00:20:00,60.0,56.1,29.88,NNW,342,0.0,4.0,87,0.00,,,0.00,0001,Weather View 32 v70,2013-08-28 07:20:00,
2013-08-28 00:25:00,60.0,56.1,29.88,West,274,0.0,4.0,87,0.00,,,0.00,0002,Weather View 32 v70,2013-08-28 07:25:00,
2013-08-28 00:30:00,60.0,56.1,29.88,SW,229,0.0,4.0,87,0.00,,,0.00,0002,Weather View 32 v70,2013-08-28 07:30:00,
2013-08-28 00:35:00,59.8,55.9,29.88,SW,229,0.0,4.0,87,0.00,,,0.00,0002,Weather View 32 v70,2013-08-28 07:35:00,
2013-08-28 00:42:00,59.7,55.8,29.88,SSW,207,0.0,4.0,87,0.00,,,0.00,0002,Weather View 32 v70,2013-08-28 07:42:00,
2013-08-28 00:50:00,60.1,56.8,29.88,East,94,1.0,4.0,89,0.00,,,0.00,0002,Weather View 32 v70,2013-08-28 07:50:00,
2013-08-28 00:55:00,60.1,56.5,29.88,SSW,207,0.0,4.0,88,0.00,,,0.00,0001,Weather View 32 v70,2013-08-28 07:55:00,
2013-08-28 01:00:00,60.0,56.4,29.88,SSE,162,0.0,4.0,88,0.00,,,0.00,0001,Weather View 32 v70,2013-08-28 08:00:00,
2013-08-28 01:05:00,59.9,56.3,29.88,SW,229,1.0,4.0,88,0.00,,,0.00,0002,Weather View 32 v70,2013-08-28 08:05:00,
2013-08-28 01:15:00,59.6,55.7,29.88,South,184,0.0,4.0,87,0.00,,,0.00,0002,Weather View 32 v70,2013-08-28 08:15:00,
2013-08-28 01:20:00,59.3,55.4,29.88,SSE,162,0.0,4.0,87,0.00,,,0.00,0001,Weather View 32 v70,2013-08-28 08:20:00,
2013-08-28 01:25:00,59.1,55.5,29.88,West,274,0.0,4.0,88,0.00,,,0.00,0001,Weather View 32 v70,2013-08-28 08:25:00,
2013-08-28 01:30:00,58.9,55.3,29.88,SE,139,0.0,4.0,88,0.00,,,0.00,0002,Weather View 32 v70,2013-08-28 08:30:00,
2013-08-28 01:40:00,58.5,55.3,29.88,SSW,207,0.0,4.0,89,0.00,,,0.00,0002,Weather View 32 v70,2013-08-28 08:40:00,
2013-08-28 01:45:00,58.4,55.2,29.87,SSW,207,0.0,4.0,89,0.00,,,0.00,0002,Weather View 32 v70,2013-08-28 08:45:00,
2013-08-28 01:50:00,58.3,55.1,29.87,South,184,0.0,4.0,89,0.00,,,0.00,0002,Weather View 32 v70,2013-08-28 08:50:00,
2013-08-28 01:55:00,58.3,55.4,29.87,WSW,252,0.0,1.0,90,0.00,,,0.00,0001,Weather View 32 v70,2013-08-28 08:55:00,
2013-08-28 02:05:00,58.3,55.4,29.87,West,274,0.0,1.0,90,0.00,,,0.00,0002,Weather View 32 v70,2013-08-28 09:05:00,
2013-08-28 02:10:00,58.3,55.4,29.87,West,274,0.0,1.0,90,0.00,,,0.00,0002,Weather View 32 v70,2013-08-28 09:10:00,
2013-08-28 02:15:00,58.3,55.4,29.87,South,184,0.0,1.0,90,0.00,,,0.00,0001,Weather View 32 v70,2013-08-28 09:15:00,
2013-08-28 02:20:00,58.2,55.3,29.87,South,184,0.0,1.0,90,0.00,,,0.00,0002,Weather View 32 v70,2013-08-28 09:20:00,
2013-08-28 02:30:00,57.9,55.0,29.87,South,184,0.0,1.0,90,0.00,,,0.00,0002,Weather View 32 v70,2013-08-28 09:30:00,
2013-08-28 02:35:00,57.6,54.7,29.87,SSE,162,0.0,1.0,90,0.00,,,0.00,0002,Weather View 32 v70,2013-08-28 09:35:00,
2013-08-28 02:40:00,57.4,54.5,29.87,WSW,252,0.0,1.0,90,0.00,,,0.00,0002,Weather View 32 v70,2013-08-28 09:40:00,
2013-08-28 02:45:00,57.5,54.9,29.87,SW,229,0.0,2.0,91,0.00,,,0.00,0002,Weather View 32 v70,2013-08-28 09:45:00,
2013-08-28 02:50:00,57.6,55.0,29.87,SSW,207,0.0,2.0,91,0.00,,,0.00,0002,Weather View 32 v70,2013-08-28 09:50:00,
2013-08-28 03:00:00,57.7,55.1,29.87,West,274,0.0,2.0,91,0.00,,,0.00,0002,Weather View 32 v70,2013-08-28 10:00:00,
2013-08-28 03:05:00,57.6,55.0,29.87,SE,139,0.0,2.0,91,0.00,,,0.00,0001,Weather View 32 v70,2013-08-28 10:05:00,
2013-08-28 03:10:00,57.4,54.8,29.87,SSE,162,0.0,2.0,91,0.00,,,0.00,0002,Weather View 32 v70,2013-08-28 10:10:00,
2013-08-28 03:15:00,57.3,54.7,29.87,South,184,0.0,2.0,91,0.00,,,0.00,0001,Weather View 32 v70,2013-08-28 10:15:00,
2013-08-28 03:25:00,57.4,55.1,29.87,West,274,0.0,2.0,92,0.00,,,0.00,0001,Weather View 32 v70,2013-08-28 10:25:00,
2013-08-28 03:30:00,57.4,55.1,29.87,WSW,252,1.0,2.0,92,0.00,,,0.00,0001,Weather View 32 v70,2013-08-28 10:30:00,
2013-08-28 03:35:00,57.6,55.3,29.87,SSW,207,0.0,2.0,92,0.00,,,0.00,0002,Weather View 32 v70,2013-08-28 10:35:00,
2013-08-28 03:40:00,57.6,55.3,29.87,SSW,207,1.0,2.0,92,0.00,,,0.00,0001,Weather View 32 v70,2013-08-28 10:40:00,
2013-08-28 03:45:00,57.6,55.6,29.87,SSW,207,0.0,3.0,93,0.00,,,0.00,0001,Weather View 32 v70,2013-08-28 10:45:00,
2013-08-28 03:55:00,57.5,55.5,29.87,South,184,0.0,3.0,93,0.00,,,0.00,0001,Weather View 32 v70,2013-08-28 10:55:00,
2013-08-28 04:00:00,57.4,55.1,29.87,SSW,207,0.0,3.0,92,0.00,,,0.00,0001,Weather View 32 v70,2013-08-28 11:00:00,
2013-08-28 04:05:00,57.1,54.8,29.87,SW,229,0.0,3.0,92,0.00,,,0.00,0001,Weather View 32 v70,2013-08-28 11:05:00,
2013-08-28 04:10:00,57.0,54.7,29.87,WSW,252,0.0,3.0,92,0.00,,,0.00,0001,Weather View 32 v70,2013-08-28 11:10:00,
2013-08-28 04:15:00,56.8,54.8,29.88,SE,139,0.0,3.0,93,0.00,,,0.00,0001,Weather View 32 v70,2013-08-28 11:15:00,
2013-08-28 04:25:00,56.5,54.5,29.87,SSE,162,0.0,3.0,93,0.00,,,0.00,0002,Weather View 32 v70,2013-08-28 11:25:00,
2013-08-28 04:30:00,56.5,54.5,29.87,South,184,0.0,3.0,93,0.00,,,0.00,0001,Weather View 32 v70,2013-08-28 11:30:00,
2013-08-28 04:35:00,56.7,55.0,29.87,SSE,162,1.0,3.0,94,0.00,,,0.00,0001,Weather View 32 v70,2013-08-28 11:35:00,
2013-08-28 04:40:00,56.5,54.8,29.87,ESE,117,0.0,3.0,94,0.00,,,0.00,0002,Weather View 32 v70,2013-08-28 11:40:00,
2013-08-28 04:45:00,56.7,55.0,29.88,SSW,207,2.0,3.0,94,0.00,,,0.00,0001,Weather View 32 v70,2013-08-28 11:45:00,
2013-08-28 04:55:00,56.9,55.2,29.88,SSE,162,0.0,3.0,94,0.00,,,0.00,0001,Weather View 32 v70,2013-08-28 11:55:00,
2013-08-28 05:00:00,57.1,55.4,29.88,ENE,72,0.0,3.0,94,0.00,,,0.00,0001,Weather View 32 v70,2013-08-28 12:00:00,
2013-08-28 05:05:00,57.2,55.5,29.87,NNE,27,0.0,3.0,94,0.00,,,0.00,0001,Weather View 32 v70,2013-08-28 12:05:00,
2013-08-28 05:10:00,57.2,55.5,29.88,WSW,252,0.0,3.0,94,0.00,,,0.00,0001,Weather View 32 v70,2013-08-28 12:10:00,
2013-08-28 05:20:00,56.9,55.2,29.87,SSE,162,0.0,3.0,94,0.00,,,0.00,0001,Weather View 32 v70,2013-08-28 12:20:00,
2013-08-28 05:25:00,56.7,55.0,29.88,ESE,117,0.0,3.0,94,0.00,,,0.00,0001,Weather View 32 v70,2013-08-28 12:25:00,
2013-08-28 05:30:00,56.5,54.8,29.87,SW,229,0.0,3.0,94,0.00,,,0.00,0002,Weather View 32 v70,2013-08-28 12:30:00,
2013-08-28 05:35:00,56.5,54.8,29.88,SSW,207,0.0,3.0,94,0.00,,,0.00,0002,Weather View 32 v70,2013-08-28 12:35:00,
2013-08-28 05:45:00,56.3,54.9,29.88,SSW,207,0.0,3.0,95,0.00,,,0.00,0002,Weather View 32 v70,2013-08-28 12:45:00,
2013-08-28 05:55:00,56.0,54.3,29.88,SW,229,0.0,1.0,94,0.00,,,0.00,0001,Weather View 32 v70,2013-08-28 12:55:00,
2013-08-28 06:00:00,56.1,54.7,29.88,SSW,207,0.0,1.0,95,0.00,,,0.00,0001,Weather View 32 v70,2013-08-28 13:00:00,
2013-08-28 06:10:00,56.0,54.6,29.89,SSW,207,0.0,1.0,95,0.00,,,0.00,0002,Weather View 32 v70,2013-08-28 13:10:00,
2013-08-28 06:15:00,55.9,54.5,29.89,WSW,252,0.0,1.0,95,0.00,,,0.00,0002,Weather View 32 v70,2013-08-28 13:15:00,
2013-08-28 06:20:00,56.0,54.6,29.89,SW,229,0.0,1.0,95,0.00,,,0.00,0002,Weather View 32 v70,2013-08-28 13:20:00,
2013-08-28 06:25:00,56.0,54.6,29.89,WSW,252,0.0,1.0,95,0.00,,,0.00,0003,Weather View 32 v70,2013-08-28 13:25:00,
2013-08-28 06:35:00,56.1,54.7,29.89,South,184,0.0,1.0,95,0.00,,,0.00,0005,Weather View 32 v70,2013-08-28 13:35:00,
2013-08-28 06:40:00,56.1,54.7,29.89,SSW,207,0.0,1.0,95,0.00,,,0.00,0007,Weather View 32 v70,2013-08-28 13:40:00,
2013-08-28 06:45:00,56.2,55.1,29.90,SW,229,0.0,2.0,96,0.00,,,0.00,0010,Weather View 32 v70,2013-08-28 13:45:00,
2013-08-28 06:55:00,56.5,55.4,29.90,WSW,252,0.0,2.0,96,0.00,,,0.00,0016,Weather View 32 v70,2013-08-28 13:55:00,
2013-08-28 07:00:00,56.5,55.4,29.90,South,184,0.0,2.0,96,0.00,,,0.00,0019,Weather View 32 v70,2013-08-28 14:00:00,
2013-08-28 07:05:00,56.5,55.4,29.90,South,184,0.0,2.0,96,0.00,,,0.00,0022,Weather View 32 v70,2013-08-28 14:05:00,
2013-08-28 07:10:00,56.6,55.5,29.90,West,274,0.0,2.0,96,0.00,,,0.00,0025,Weather View 32 v70,2013-08-28 14:10:00,
2013-08-28 07:15:00,56.7,55.6,29.91,ESE,117,0.0,2.0,96,0.00,,,0.00,0035,Weather View 32 v70,2013-08-28 14:15:00,
2013-08-28 07:25:00,57.4,56.3,29.90,SE,139,0.0,2.0,96,0.00,,,0.00,0155,Weather View 32 v70,2013-08-28 14:25:00,
2013-08-28 07:30:00,57.9,56.8,29.91,SE,139,0.0,2.0,96,0.00,,,0.00,0168,Weather View 32 v70,2013-08-28 14:30:00,
2013-08-28 07:35:00,58.7,57.3,29.91,ESE,117,0.0,2.0,95,0.00,,,0.00,0182,Weather View 32 v70,2013-08-28 14:35:00,
2013-08-28 07:40:00,59.5,57.8,29.91,ESE,117,1.0,2.0,94,0.00,,,0.00,0195,Weather View 32 v70,2013-08-28 14:40:00,
2013-08-28 07:46:00,60.4,58.7,29.91,ESE,117,0.0,1.0,94,0.00,,,0.00,0213,Weather View 32 v70,2013-08-28 14:46:00,
2013-08-28 07:55:00,61.8,59.1,29.91,SE,139,0.0,1.0,91,0.00,,,0.00,0240,Weather View 32 v70,2013-08-28 14:55:00,
2013-08-28 08:00:00,62.4,59.1,29.91,East,94,1.0,2.0,89,0.00,,,0.00,0253,Weather View 32 v70,2013-08-28 15:00:00,
2013-08-28 08:05:00,62.8,58.9,29.91,ESE,117,1.0,3.0,87,0.00,,,0.00,0265,Weather View 32 v70,2013-08-28 15:05:00,
2013-08-28 08:15:00,63.4,58.8,29.91,SE,139,1.0,3.0,85,0.00,,,0.00,0289,Weather View 32 v70,2013-08-28 15:15:00,
2013-08-28 08:20:00,63.2,58.3,29.91,South,184,2.0,3.0,84,0.00,,,0.00,0301,Weather View 32 v70,2013-08-28 15:20:00,
2013-08-28 08:25:00,63.4,58.1,29.92,ESE,117,3.0,4.0,83,0.00,,,0.00,0313,Weather View 32 v70,2013-08-28 15:25:00,
2013-08-28 08:30:00,63.6,58.3,29.91,East,94,2.0,7.0,83,0.00,,,0.00,0325,Weather View 32 v70,2013-08-28 15:30:00,
2013-08-28 08:35:00,64.4,59.1,29.91,SE,139,0.0,7.0,83,0.00,,,0.00,0338,Weather View 32 v70,2013-08-28 15:35:00,
2013-08-28 08:45:00,65.1,58.8,29.92,West,274,0.0,7.0,80,0.00,,,0.00,0360,Weather View 32 v70,2013-08-28 15:45:00,
2013-08-28 08:50:00,65.4,59.0,29.92,SE,139,2.0,7.0,80,0.00,,,0.00,0374,Weather View 32 v70,2013-08-28 15:50:00,
2013-08-28 08:55:00,65.4,58.3,29.92,East,94,4.0,7.0,78,0.00,,,0.00,0385,Weather View 32 v70,2013-08-28 15:55:00,
2013-08-28 09:00:00,65.6,58.5,29.92,ESE,117,1.0,7.0,78,0.00,,,0.00,0397,Weather View 32 v70,2013-08-28 16:00:00,
2013-08-28 09:10:00,66.7,59.2,29.92,ESE,117,2.0,7.0,77,0.00,,,0.00,0420,Weather View 32 v70,2013-08-28 16:10:00,
2013-08-28 09:15:00,67.3,59.5,29.92,ENE,72,3.0,7.0,76,0.00,,,0.00,0431,Weather View 32 v70,2013-08-28 16:15:00,
2013-08-28 09:20:00,67.2,59.0,29.92,East,94,1.0,7.0,75,0.00,,,0.00,0444,Weather View 32 v70,2013-08-28 16:20:00,
2013-08-28 09:25:00,67.3,58.7,29.92,ENE,72,3.0,7.0,74,0.00,,,0.00,0454,Weather View 32 v70,2013-08-28 16:25:00,
2013-08-28 09:30:00,67.7,59.1,29.92,SE,139,2.0,5.0,74,0.00,,,0.00,0468,Weather View 32 v70,2013-08-28 16:30:00,
2013-08-28 09:40:00,67.5,58.1,29.92,SE,139,3.0,6.0,72,0.00,,,0.00,0491,Weather View 32 v70,2013-08-28 16:40:00,
2013-08-28 09:45:00,68.0,58.6,29.92,ESE,117,1.0,6.0,72,0.00,,,0.00,0501,Weather View 32 v70,2013-08-28 16:45:00,
2013-08-28 09:50:00,68.9,59.5,29.92,SSE,162,1.0,6.0,72,0.00,,,0.00,0514,Weather View 32 v70,2013-08-28 16:50:00,
2013-08-28 09:55:00,69.8,59.5,29.92,North,4,1.0,6.0,70,0.00,,,0.00,0526,Weather View 32 v70,2013-08-28 16:55:00,
2013-08-28 10:05:00,70.1,59.0,29.92,ENE,72,3.0,6.0,68,0.00,,,0.00,0547,Weather View 32 v70,2013-08-28 17:05:00,
2013-08-28 10:10:00,70.4,58.9,29.92,East,94,4.0,6.0,67,0.00,,,0.00,0559,Weather View 32 v70,2013-08-28 17:10:00,
2013-08-28 10:15:00,71.2,59.6,29.92,ENE,72,3.0,6.0,67,0.00,,,0.00,0571,Weather View 32 v70,2013-08-28 17:15:00,
2013-08-28 10:20:00,71.2,58.8,29.92,SE,139,3.0,6.0,65,0.00,,,0.00,0580,Weather View 32 v70,2013-08-28 17:20:00,
2013-08-28 10:30:00,72.4,59.5,29.92,ESE,117,0.0,7.0,64,0.00,,,0.00,0602,Weather View 32 v70,2013-08-28 17:30:00,
2013-08-28 10:35:00,73.3,59.9,29.92,NE,49,2.0,7.0,63,0.00,,,0.00,0614,Weather View 32 v70,2013-08-28 17:35:00,
2013-08-28 10:40:00,73.5,59.2,29.92,SSE,162,1.0,7.0,61,0.00,,,0.00,0624,Weather View 32 v70,2013-08-28 17:40:00,
2013-08-28 10:45:00,74.1,59.3,29.92,WSW,252,4.0,7.0,60,0.00,,,0.00,0633,Weather View 32 v70,2013-08-28 17:45:00,
2013-08-28 10:50:00,74.5,58.7,29.92,West,274,3.0,7.0,58,0.00,,,0.00,0644,Weather View 32 v70,2013-08-28 17:50:00,
2013-08-28 11:00:00,74.6,57.8,29.92,SW,229,4.0,8.0,56,0.00,,,0.00,0662,Weather View 32 v70,2013-08-28 18:00:00,
2013-08-28 11:05:00,74.3,57.0,29.92,SW,229,1.0,8.0,55,0.00,,,0.00,0670,Weather View 32 v70,2013-08-28 18:05:00,
2013-08-28 11:10:00,74.6,57.8,29.92,SW,229,6.0,9.0,56,0.00,,,0.00,0678,Weather View 32 v70,2013-08-28 18:10:00,
2013-08-28 11:15:00,74.8,57.5,29.92,NW,319,10.0,10.0,55,0.00,,,0.00,0685,Weather View 32 v70,2013-08-28 18:15:00,
2013-08-28 11:20:00,75.1,57.8,29.92,West,274,3.0,10.0,55,0.00,,,0.00,0692,Weather View 32 v70,2013-08-28 18:20:00,
2013-08-28 11:25:00,75.9,58.5,29.92,South,184,4.0,10.0,55,0.00,,,0.00,0699,Weather View 32 v70,2013-08-28 18:25:00,
2013-08-28 11:35:00,75.9,57.0,29.92,WSW,252,3.0,11.0,52,0.00,,,0.00,0710,Weather View 32 v70,2013-08-28 18:35:00,
2013-08-28 11:40:00,76.4,57.4,29.92,West,274,4.0,11.0,52,0.00,,,0.00,0714,Weather View 32 v70,2013-08-28 18:40:00,
2013-08-28 11:45:00,76.6,56.5,29.92,NW,319,6.0,11.0,50,0.00,,,0.00,0718,Weather View 32 v70,2013-08-28 18:45:00,
2013-08-28 11:50:00,76.5,56.4,29.92,NW,319,10.0,12.0,50,0.00,,,0.00,0723,Weather View 32 v70,2013-08-28 18:50:00,
2013-08-28 11:55:00,76.7,57.2,29.92,WNW,297,4.0,12.0,51,0.00,,,0.00,0728,Weather View 32 v70,2013-08-28 18:55:00,
2013-08-28 12:05:00,77.0,56.3,29.92,NNW,342,5.0,12.0,49,0.00,,,0.00,0732,Weather View 32 v70,2013-08-28 19:05:00,
2013-08-28 12:10:00,77.7,57.0,29.91,WNW,297,2.0,13.0,49,0.00,,,0.00,0737,Weather View 32 v70,2013-08-28 19:10:00,
2013-08-28 12:15:00,77.5,55.6,29.91,NW,319,10.0,13.0,47,0.00,,,0.00,0740,Weather View 32 v70,2013-08-28 19:15:00,
2013-08-28 12:20:00,78.3,56.3,29.91,WNW,297,4.0,13.0,47,0.00,,,0.00,0743,Weather View 32 v70,2013-08-28 19:20:00,
2013-08-28 12:25:00,77.9,55.4,29.91,NW,319,11.0,14.0,46,0.00,,,0.00,0744,Weather View 32 v70,2013-08-28 19:25:00,
2013-08-28 12:35:00,78.0,54.9,29.91,NNW,342,11.0,15.0,45,0.00,,,0.00,0749,Weather View 32 v70,2013-08-28 19:35:00,
2013-08-28 12:40:00,78.1,55.0,29.91,West,274,6.0,15.0,45,0.00,,,0.00,0753,Weather View 32 v70,2013-08-28 19:40:00,
2013-08-28 12:45:00,78.8,55.6,29.91,WNW,297,7.0,15.0,45,0.00,,,0.00,0754,Weather View 32 v70,2013-08-28 19:45:00,
2013-08-28 12:50:00,79.3,56.0,29.91,NW,319,4.0,15.0,45,0.00,,,0.00,0755,Weather View 32 v70,2013-08-28 19:50:00,
2013-08-28 12:55:00,79.3,55.4,29.91,West,274,4.0,15.0,44,0.00,,,0.00,0756,Weather View 32 v70,2013-08-28 19:55:00,
2013-08-28 13:05:00,79.4,54.2,29.90,NW,319,5.0,15.0,42,0.00,,,0.00,0757,Weather View 32 v70,2013-08-28 20:05:00,
2013-08-28 13:10:00,79.3,54.1,29.90,NW,319,4.0,15.0,42,0.00,,,0.00,0757,Weather View 32 v70,2013-08-28 20:10:00,
2013-08-28 13:15:00,80.0,55.4,29.90,West,274,4.0,15.0,43,0.00,,,0.00,0757,Weather View 32 v70,2013-08-28 20:15:00,
2013-08-28 13:20:00,80.2,54.9,29.90,WSW,252,4.0,15.0,42,0.00,,,0.00,0757,Weather View 32 v70,2013-08-28 20:20:00,
2013-08-28 13:25:00,80.6,54.6,29.90,SW,229,4.0,15.0,41,0.00,,,0.00,0760,Weather View 32 v70,2013-08-28 20:25:00,
2013-08-28 13:35:00,80.3,55.7,29.90,WNW,297,6.0,14.0,43,0.00,,,0.00,0755,Weather View 32 v70,2013-08-28 20:35:00,
2013-08-28 13:40:00,80.0,54.8,29.90,WNW,297,5.0,14.0,42,0.00,,,0.00,0754,Weather View 32 v70,2013-08-28 20:40:00,
2013-08-28 13:45:00,79.5,54.3,29.90,WNW,297,7.0,14.0,42,0.00,,,0.00,0750,Weather View 32 v70,2013-08-28 20:45:00,
2013-08-28 13:50:00,78.9,55.7,29.90,NW,319,7.0,14.0,45,0.00,,,0.00,0749,Weather View 32 v70,2013-08-28 20:50:00,
2013-08-28 14:00:00,79.5,56.2,29.90,West,274,8.0,14.0,45,0.00,,,0.00,0743,Weather View 32 v70,2013-08-28 21:00:00,
2013-08-28 14:05:00,79.4,56.7,29.90,West,274,4.0,15.0,46,0.00,,,0.00,0740,Weather View 32 v70,2013-08-28 21:05:00,
2013-08-28 14:10:00,80.0,56.7,29.90,WNW,297,9.0,15.0,45,0.00,,,0.00,0738,Weather View 32 v70,2013-08-28 21:10:00,
2013-08-28 14:15:00,79.9,56.6,29.89,NNW,342,10.0,15.0,45,0.00,,,0.00,0733,Weather View 32 v70,2013-08-28 21:15:00,
2013-08-28 14:20:00,79.8,55.9,29.89,NNE,27,2.0,15.0,44,0.00,,,0.00,0729,Weather View 32 v70,2013-08-28 21:20:00,
2013-08-28 14:25:00,79.8,55.9,29.89,WNW,297,7.0,15.0,44,0.00,,,0.00,0725,Weather View 32 v70,2013-08-28 21:25:00,
2013-08-28 14:35:00,80.6,56.6,29.89,WNW,297,6.0,15.0,44,0.00,,,0.00,0714,Weather View 32 v70,2013-08-28 21:35:00,
2013-08-28 14:40:00,80.5,56.5,29.89,WSW,252,6.0,15.0,44,0.00,,,0.00,0709,Weather View 32 v70,2013-08-28 21:40:00,
2013-08-28 14:45:00,80.9,56.9,29.88,West,274,6.0,15.0,44,0.00,,,0.00,0703,Weather View 32 v70,2013-08-28 21:45:00,
2013-08-28 14:50:00,81.4,56.7,29.88,NW,319,4.0,15.0,43,0.00,,,0.00,0698,Weather View 32 v70,2013-08-28 21:50:00,
2013-08-28 14:55:00,81.4,56.7,29.88,WSW,252,4.0,15.0,43,0.00,,,0.00,0691,Weather View 32 v70,2013-08-28 21:55:00,
2013-08-28 15:05:00,81.5,56.1,29.88,WNW,297,4.0,15.0,42,0.00,,,0.00,0680,Weather View 32 v70,2013-08-28 22:05:00,
2013-08-28 15:10:00,82.0,55.9,29.88,WSW,252,4.0,15.0,41,0.00,,,0.00,0674,Weather View 32 v70,2013-08-28 22:10:00,
2013-08-28 15:15:00,81.8,55.0,29.88,WNW,297,7.0,15.0,40,0.00,,,0.00,0666,Weather View 32 v70,2013-08-28 22:15:00,
2013-08-28 15:20:00,81.8,56.4,29.87,NW,319,6.0,15.0,42,0.00,,,0.00,0659,Weather View 32 v70,2013-08-28 22:20:00,
2013-08-28 15:25:00,80.9,55.6,29.87,NW,319,7.0,14.0,42,0.00,,,0.00,0653,Weather View 32 v70,2013-08-28 22:25:00,
2013-08-28 15:35:00,81.0,56.3,29.88,WSW,252,3.0,14.0,43,0.00,,,0.00,0638,Weather View 32 v70,2013-08-28 22:35:00,
2013-08-28 15:40:00,81.5,56.8,29.88,West,274,5.0,14.0,43,0.00,,,0.00,0634,Weather View 32 v70,2013-08-28 22:40:00,
2013-08-28 15:45:00,81.1,55.8,29.88,SSW,207,10.0,14.0,42,0.00,,,0.00,0624,Weather View 32 v70,2013-08-28 22:45:00,
2013-08-28 15:50:00,80.9,56.2,29.87,South,184,5.0,14.0,43,0.00,,,0.00,0614,Weather View 32 v70,2013-08-28 22:50:00,
2013-08-28 15:55:00,80.8,56.8,29.87,South,184,1.0,17.0,44,0.00,,,0.00,0603,Weather View 32 v70,2013-08-28 22:55:00,
2013-08-28 16:05:00,80.9,56.2,29.87,West,274,7.0,17.0,43,0.00,,,0.00,0583,Weather View 32 v70,2013-08-28 23:05:00,
2013-08-28 16:10:00,80.5,57.1,29.87,SW,229,7.0,17.0,45,0.00,,,0.00,0572,Weather View 32 v70,2013-08-28 23:10:00,
2013-08-28 16:15:00,80.5,57.7,29.87,ENE,72,4.0,17.0,46,0.00,,,0.00,0560,Weather View 32 v70,2013-08-28 23:15:00,
2013-08-28 16:20:00,80.2,58.1,29.87,WSW,252,5.0,17.0,47,0.00,,,0.00,0548,Weather View 32 v70,2013-08-28 23:20:00,
2013-08-28 16:25:00,79.0,57.0,29.87,SW,229,12.0,18.0,47,0.00,,,0.00,0538,Weather View 32 v70,2013-08-28 23:25:00,
2013-08-28 16:35:00,79.3,59.0,29.88,West,274,7.0,18.0,50,0.00,,,0.00,0514,Weather View 32 v70,2013-08-28 23:35:00,
2013-08-28 16:40:00,78.9,58.6,29.87,West,274,7.0,18.0,50,0.00,,,0.00,0500,Weather View 32 v70,2013-08-28 23:40:00,
2013-08-28 16:45:00,78.4,58.7,29.87,West,274,7.0,18.0,51,0.00,,,0.00,0488,Weather View 32 v70,2013-08-28 23:45:00,
2013-08-28 16:50:00,78.4,58.7,29.87,WNW,297,6.0,18.0,51,0.00,,,0.00,0475,Weather View 32 v70,2013-08-28 23:50:00,
2013-08-28 16:55:00,78.5,58.8,29.87,West,274,6.0,18.0,51,0.00,,,0.00,0464,Weather View 32 v70,2013-08-28 23:55:00,
2013-08-28 17:05:00,78.1,59.0,29.87,WSW,252,12.0,18.0,52,0.00,,,0.00,0439,Weather View 32 v70,2013-08-29 00:05:00,
2013-08-28 17:10:00,78.2,59.6,29.87,SW,229,10.0,18.0,53,0.00,,,0.00,0428,Weather View 32 v70,2013-08-29 00:10:00,
2013-08-28 17:15:00,78.0,59.4,29.87,NW,319,4.0,18.0,53,0.00,,,0.00,0415,Weather View 32 v70,2013-08-29 00:15:00,
2013-08-28 17:20:00,77.8,59.8,29.87,SSW,207,4.0,18.0,54,0.00,,,0.00,0402,Weather View 32 v70,2013-08-29 00:20:00,
2013-08-28 17:30:00,77.5,60.0,29.87,WSW,252,4.0,16.0,55,0.00,,,0.00,0378,Weather View 32 v70,2013-08-29 00:30:00,
2013-08-28 17:35:00,77.4,59.9,29.87,WSW,252,8.0,16.0,55,0.00,,,0.00,0365,Weather View 32 v70,2013-08-29 00:35:00,
2013-08-28 17:40:00,77.1,59.6,29.87,WSW,252,11.0,16.0,55,0.00,,,0.00,0353,Weather View 32 v70,2013-08-29 00:40:00,
2013-08-28 17:45:00,76.9,60.0,29.87,West,274,6.0,16.0,56,0.00,,,0.00,0341,Weather View 32 v70,2013-08-29 00:45:00,
2013-08-28 17:50:00,76.9,59.4,29.87,West,274,6.0,16.0,55,0.00,,,0.00,0329,Weather View 32 v70,2013-08-29 00:50:00,
2013-08-28 17:55:00,76.7,59.8,29.87,North,4,2.0,16.0,56,0.00,,,0.00,0316,Weather View 32 v70,2013-08-29 00:55:00,
2013-08-28 18:05:00,76.6,59.7,29.87,West,274,4.0,16.0,56,0.00,,,0.00,0292,Weather View 32 v70,2013-08-29 01:05:00,
2013-08-28 18:10:00,76.0,59.1,29.87,WNW,297,6.0,16.0,56,0.00,,,0.00,0280,Weather View 32 v70,2013-08-29 01:10:00,
2013-08-28 18:15:00,75.7,59.3,29.88,West,274,4.0,16.0,57,0.00,,,0.00,0268,Weather View 32 v70,2013-08-29 01:15:00,
2013-08-28 18:20:00,75.5,59.1,29.88,West,274,6.0,16.0,57,0.00,,,0.00,0255,Weather View 32 v70,2013-08-29 01:20:00,
2013-08-28 18:25:00,75.6,59.7,29.88,WNW,297,3.0,15.0,58,0.00,,,0.00,0242,Weather View 32 v70,2013-08-29 01:25:00,
2013-08-28 18:30:00,75.5,59.1,29.88,West,274,4.0,14.0,57,0.00,,,0.00,0230,Weather View 32 v70,2013-08-29 01:30:00,
2013-08-28 18:40:00,75.3,59.0,29.88,WNW,297,3.0,14.0,57,0.00,,,0.00,0203,Weather View 32 v70,2013-08-29 01:40:00,
2013-08-28 18:45:00,75.0,59.2,29.88,NNW,342,4.0,12.0,58,0.00,,,0.00,0020,Weather View 32 v70,2013-08-29 01:45:00,
2013-08-28 18:50:00,74.5,59.2,29.88,SW,229,6.0,12.0,59,0.00,,,0.00,0018,Weather View 32 v70,2013-08-29 01:50:00,
2013-08-28 18:55:00,74.3,59.0,29.87,WNW,297,3.0,12.0,59,0.00,,,0.00,0017,Weather View 32 v70,2013-08-29 01:55:00,
2013-08-28 19:00:00,74.0,58.7,29.88,North,4,4.0,12.0,59,0.00,,,0.00,0016,Weather View 32 v70,2013-08-29 02:00:00,
2013-08-28 19:10:00,73.4,59.1,29.88,NNE,27,4.0,12.0,61,0.00,,,0.00,0015,Weather View 32 v70,2013-08-29 02:10:00,
2013-08-28 19:15:00,73.2,58.9,29.88,NE,49,2.0,11.0,61,0.00,,,0.00,0014,Weather View 32 v70,2013-08-29 02:15:00,
2013-08-28 19:20:00,72.7,59.3,29.88,NW,319,4.0,11.0,63,0.00,,,0.00,0012,Weather View 32 v70,2013-08-29 02:20:00,
2013-08-28 19:25:00,72.4,59.5,29.88,North,4,2.0,11.0,64,0.00,,,0.00,0011,Weather View 32 v70,2013-08-29 02:25:00,
2013-08-28 19:30:00,72.0,59.6,29.89,NNW,342,4.0,11.0,65,0.00,,,0.00,0010,Weather View 32 v70,2013-08-29 02:30:00,
2013-08-28 19:35:00,71.8,59.4,29.89,North,4,3.0,11.0,65,0.00,,,0.00,0008,Weather View 32 v70,2013-08-29 02:35:00,
2013-08-28 19:40:00,71.6,59.2,29.89,NNE,27,4.0,9.0,65,0.00,,,0.00,0005,Weather View 32 v70,2013-08-29 02:40:00,
2013-08-28 19:50:00,71.3,59.3,29.89,NNW,342,1.0,8.0,66,0.00,,,0.00,0002,Weather View 32 v70,2013-08-29 02:50:00,
2013-08-28 19:55:00,71.1,59.1,29.89,SW,229,1.0,8.0,66,0.00,,,0.00,0002,Weather View 32 v70,2013-08-29 02:55:00,
2013-08-28 20:00:00,70.9,59.4,29.89,East,94,1.0,8.0,67,0.00,,,0.00,0002,Weather View 32 v70,2013-08-29 03:00:00,
2013-08-28 20:05:00,70.7,59.2,29.89,West,274,1.0,6.0,67,0.00,,,0.00,0002,Weather View 32 v70,2013-08-29 03:05:00,
2013-08-28 20:10:00,70.5,59.0,29.90,NW,319,3.0,6.0,67,0.00,,,0.00,0001,Weather View 32 v70,2013-08-29 03:10:00,
2013-08-28 20:20:00,70.1,59.0,29.90,West,274,2.0,6.0,68,0.00,,,0.00,0002,Weather View 32 v70,2013-08-29 03:20:00,
2013-08-28 20:25:00,69.7,59.0,29.90,West,274,2.0,6.0,69,0.00,,,0.00,0001,Weather View 32 v70,2013-08-29 03:25:00,
2013-08-28 20:30:00,69.2,59.0,29.90,NW,319,1.0,6.0,70,0.00,,,0.00,0001,Weather View 32 v70,2013-08-29 03:30:00,
2013-08-28 20:35:00,68.9,58.7,29.91,SSW,207,1.0,5.0,70,0.00,,,0.00,0001,Weather View 32 v70,2013-08-29 03:35:00,
2013-08-28 20:40:00,68.5,58.3,29.91,SSW,207,2.0,5.0,70,0.00,,,0.00,0001,Weather View 32 v70,2013-08-29 03:40:00,
2013-08-28 20:45:00,68.1,57.9,29.91,SE,139,0.0,4.0,70,0.00,,,0.00,0001,Weather View 32 v70,2013-08-29 03:45:00,
2013-08-28 20:50:00,67.9,58.1,29.91,South,184,1.0,4.0,71,0.00,,,0.00,0002,Weather View 32 v70,2013-08-29 03:50:00,
2013-08-28 20:55:00,67.7,58.3,29.92,SE,139,0.0,4.0,72,0.00,,,0.00,0001,Weather View 32 v70,2013-08-29 03:55:00,
2013-08-28 21:05:00,67.1,58.1,29.92,South,184,1.0,4.0,73,0.00,,,0.00,0001,Weather View 32 v70,2013-08-29 04:05:00,
2013-08-28 21:10:00,66.7,58.1,29.92,SE,139,0.0,4.0,74,0.00,,,0.00,0001,Weather View 32 v70,2013-08-29 04:10:00,
2013-08-28 21:15:00,66.5,58.3,29.92,SE,139,0.0,4.0,75,0.00,,,0.00,0001,Weather View 32 v70,2013-08-29 04:15:00,
2013-08-28 21:20:00,66.4,58.6,29.92,SSW,207,0.0,4.0,76,0.00,,,0.00,0001,Weather View 32 v70,2013-08-29 04:20:00,
2013-08-28 21:25:00,66.2,58.8,29.92,SSE,162,0.0,4.0,77,0.00,,,0.00,0002,Weather View 32 v70,2013-08-29 04:25:00,
2013-08-28 21:30:00,66.0,58.6,29.93,SSE,162,0.0,4.0,77,0.00,,,0.00,0001,Weather View 32 v70,2013-08-29 04:30:00,
2013-08-28 21:35:00,65.6,58.2,29.93,SSW,207,0.0,4.0,77,0.00,,,0.00,0001,Weather View 32 v70,2013-08-29 04:35:00,
2013-08-28 21:40:00,65.4,58.3,29.93,SE,139,0.0,4.0,78,0.00,,,0.00,0001,Weather View 32 v70,2013-08-29 04:40:00,
2013-08-28 21:45:00,65.2,58.5,29.93,NE,49,1.0,4.0,79,0.00,,,0.00,0001,Weather View 32 v70,2013-08-29 04:45:00,
2013-08-28 21:50:00,65.0,58.3,29.93,NE,49,0.0,3.0,79,0.00,,,0.00,0001,Weather View 32 v70,2013-08-29 04:50:00,
2013-08-28 21:55:00,64.8,58.5,29.93,SE,139,0.0,3.0,80,0.00,,,0.00,0002,Weather View 32 v70,2013-08-29 04:55:00,
2013-08-28 22:05:00,64.5,58.5,29.93,SE,139,0.0,3.0,81,0.00,,,0.00,0002,Weather View 32 v70,2013-08-29 05:05:00,
2013-08-28 22:10:00,64.1,58.1,29.94,South,184,0.0,3.0,81,0.00,,,0.00,0001,Weather View 32 v70,2013-08-29 05:10:00,
2013-08-28 22:15:00,63.8,57.8,29.94,South,184,0.0,3.0,81,0.00,,,0.00,0001,Weather View 32 v70,2013-08-29 05:15:00,
2013-08-28 22:20:00,63.5,57.9,29.94,South,184,0.0,3.0,82,0.00,,,0.00,0001,Weather View 32 v70,2013-08-29 05:20:00,
2013-08-28 22:25:00,63.5,58.2,29.94,SSE,162,0.0,3.0,83,0.00,,,0.00,0002,Weather View 32 v70,2013-08-29 05:25:00,
2013-08-28 22:30:00,63.4,58.1,29.94,ESE,117,0.0,3.0,83,0.00,,,0.00,0001,Weather View 32 v70,2013-08-29 05:30:00,
2013-08-28 22:35:00,63.3,58.4,29.94,South,184,0.0,3.0,84,0.00,,,0.00,0001,Weather View 32 v70,2013-08-29 05:35:00,
2013-08-28 22:40:00,63.3,58.7,29.94,SE,139,0.0,3.0,85,0.00,,,0.00,0001,Weather View 32 v70,2013-08-29 05:40:00,
2013-08-28 22:45:00,63.2,58.6,29.94,SSW,207,2.0,3.0,85,0.00,,,0.00,0002,Weather View 32 v70,2013-08-29 05:45:00,
2013-08-28 22:50:00,63.2,58.6,29.94,SSE,162,0.0,3.0,85,0.00,,,0.00,0001,Weather View 32 v70,2013-08-29 05:50:00,
2013-08-28 22:55:00,63.0,58.4,29.95,SSE,162,0.0,3.0,85,0.00,,,0.00,0001,Weather View 32 v70,2013-08-29 05:55:00,
2013-08-28 23:00:00,62.7,58.1,29.95,SSW,207,0.0,3.0,85,0.00,,,0.00,0001,Weather View 32 v70,2013-08-29 06:00:00,
2013-08-28 23:05:00,62.5,58.2,29.95,SSW,207,0.0,3.0,86,0.00,,,0.00,0001,Weather View 32 v70,2013-08-29 06:05:00,
2013-08-28 23:15:00,62.4,58.1,29.95,South,184,0.0,3.0,86,0.00,,,0.00,0002,Weather View 32 v70,2013-08-29 06:15:00,
2013-08-28 23:20:00,62.3,58.0,29.95,SW,229,0.0,3.0,86,0.00,,,0.00,0002,Weather View 32 v70,2013-08-29 06:20:00,
2013-08-28 23:25:00,62.2,58.3,29.95,West,274,0.0,3.0,87,0.00,,,0.00,0001,Weather View 32 v70,2013-08-29 06:25:00,
2013-08-28 23:30:00,62.1,58.2,29.95,NE,49,0.0,3.0,87,0.00,,,0.00,0001,Weather View 32 v70,2013-08-29 06:30:00,
2013-08-28 23:40:00,61.9,58.0,29.95,SSE,162,0.0,3.0,87,0.00,,,0.00,0001,Weather View 32 v70,2013-08-29 06:40:00,
2013-08-28 23:50:00,61.5,57.6,29.95,SE,139,1.0,3.0,87,0.00,,,0.00,0001,Weather View 32 v70,2013-08-29 06:50:00,
2013-08-28 23:55:00,61.3,57.7,29.95,SSE,162,0.0,3.0,88,0.00,,,0.00,0001,Weather View 32 v70,2013-08-29 06:55:00,